Orlando, FL

9:02 PM EDT on October 16, 2018 (GMT -0400)
Executive

Weather History for KORL - January, 2018

Change the Weather History Date:

Saturday, January 13, 2018

  Actual Average Record
Temperature  
Mean Temperature 56 °F -  
Max Temperature 64 °F 68 °F 82 °F (2005)
Min Temperature 46 °F 48 °F 30 °F (2011)
Degree Days  
Heating Degree Days 9    
Growing Degree Days 6 (Base 50)    
Moisture  
Dew Point 48 °F    
Average Humidity 75    
Maximum Humidity 90    
Minimum Humidity 64    
Precipitation  
Precipitation 0.00 in - - ()
Sea Level Pressure  
Sea Level Pressure 30.16 in    
Wind  
Wind Speed 10 mph (WNW)    
Max Wind Speed 15 mph    
Max Gust Speed 21 mph    
Visibility 10 miles    
Events      
Averages and records for this station are not official NWS values.
T = Trace of Precipitation, MM = Missing Value Source: NWS Daily Summary

Daily Weather History Graph

Daily Weather History Graph

Search for Another Location

Airport or City:

Astronomy

Jan. 13, 2018 Rise Set
Actual Time 7:19 AM EST 5:49 PM EST
Civil Twilight 6:53 AM EST 6:14 PM EST
Nautical Twilight 6:24 AM EST 6:43 PM EST
Astronomical Twilight 5:56 AM EST 7:12 PM EST
Moon 4:23 AM EST (1/13) 3:21 PM EST (1/13)
Length of Visible Light 11h 21m
Length of Day
10h 30m
Waning Crescent, 10% of the Moon is Illuminated
Jan 13
Waning Crescent
Jan 16
New
Jan 24
First Quarter
Jan 31
Full
Feb 7
Last Quarter

Hourly Weather History & Observations

Time (EST) Temp. Dew Point Humidity Pressure Visibility Wind Dir Wind Speed Gust Speed Precip Events Conditions
12:53 AM 64.0 °F 60.1 °F 87% 29.97 in 10.0 mi SW 8.1 mph - N/A   Mostly Cloudy
1:53 AM 63.0 °F 60.1 °F 90% 29.98 in 10.0 mi SW 4.6 mph - N/A   Mostly Cloudy
2:33 AM 63.0 °F 60.1 °F 90% 29.97 in 10.0 mi WSW 9.2 mph - N/A   Overcast
2:53 AM 63.0 °F 60.1 °F 90% 29.99 in 10.0 mi WSW 8.1 mph - N/A   Overcast
3:53 AM 63.0 °F 59.0 °F 87% 30.00 in 10.0 mi West 6.9 mph - N/A   Overcast
4:53 AM 62.1 °F 55.9 °F 80% 30.01 in 10.0 mi WNW 12.7 mph - N/A   Overcast
5:53 AM 60.1 °F 54.0 °F 80% 30.04 in 10.0 mi WNW 11.5 mph - N/A   Mostly Cloudy
6:53 AM 59.0 °F 53.1 °F 81% 30.06 in 10.0 mi WNW 15.0 mph - N/A   Partly Cloudy
7:53 AM 57.9 °F 52.0 °F 81% 30.09 in 10.0 mi West 13.8 mph 20.7 mph N/A   Scattered Clouds
8:53 AM 59.0 °F 50.0 °F 72% 30.12 in 10.0 mi WNW 13.8 mph - N/A   Overcast
9:18 AM 57.9 °F 50.0 °F 75% 30.12 in 10.0 mi WNW 11.5 mph - N/A   Overcast
9:53 AM 59.0 °F 50.0 °F 72% 30.15 in 10.0 mi WNW 11.5 mph - N/A   Overcast
10:53 AM 59.0 °F 48.0 °F 67% 30.16 in 10.0 mi West 12.7 mph - N/A   Mostly Cloudy
11:53 AM 59.0 °F 48.0 °F 67% 30.16 in 10.0 mi WNW 11.5 mph - N/A   Overcast
12:53 PM 57.9 °F 46.9 °F 67% 30.15 in 10.0 mi WNW 15.0 mph - N/A   Overcast
1:53 PM 57.9 °F 46.0 °F 65% 30.13 in 10.0 mi WNW 13.8 mph - N/A   Overcast
2:53 PM 57.0 °F 45.0 °F 64% 30.14 in 10.0 mi WNW 13.8 mph - N/A   Overcast
3:53 PM 55.0 °F 44.1 °F 67% 30.16 in 10.0 mi WNW 11.5 mph - N/A   Overcast
4:53 PM 53.1 °F 45.0 °F 74% 30.19 in 10.0 mi NNW 10.4 mph - N/A   Overcast
5:53 PM 52.0 °F 43.0 °F 71% 30.22 in 10.0 mi NW 10.4 mph - N/A   Overcast
6:53 PM 51.1 °F 43.0 °F 74% 30.25 in 10.0 mi NW 8.1 mph - N/A   Overcast
7:53 PM 50.0 °F 41.0 °F 71% 30.28 in 10.0 mi NW 9.2 mph - N/A   Mostly Cloudy
8:09 PM 50.0 °F 41.0 °F 71% 30.27 in 10.0 mi NNW 8.1 mph - N/A   Scattered Clouds
8:53 PM 50.0 °F 39.9 °F 68% 30.30 in 10.0 mi North 6.9 mph - N/A   Mostly Cloudy
9:07 PM 48.9 °F 39.9 °F 71% 30.29 in 10.0 mi NNW 5.8 mph - N/A   Scattered Clouds
9:22 PM 48.9 °F 41.0 °F 74% 30.30 in 10.0 mi NW 5.8 mph - N/A   Mostly Cloudy
9:33 PM 48.9 °F 41.0 °F 74% 30.30 in 10.0 mi NW 5.8 mph - N/A   Mostly Cloudy
9:53 PM 48.9 °F 41.0 °F 74% 30.32 in 10.0 mi NW 5.8 mph - N/A   Overcast
10:53 PM 48.0 °F 41.0 °F 77% 30.34 in 10.0 mi NW 9.2 mph - N/A   Overcast
11:53 PM 46.9 °F 37.0 °F 68% 30.35 in 10.0 mi NNW 10.4 mph - N/A   Overcast